Temperature
29 30 30 30 29 29 29 30 30 30 30 30 29 28 27 26 25 24 23 23 22 22 21 21 20 20 20 20 19 19 19 19 18 18 18 18 18 18 18 17 17 17 17 17
28 29 29 29 29 29 29 29 29 29 29 30 29 27 26 26 25 24 23 23 22 22 21 20 20 20 19 19 19 19 19 18 18 18 18 18 18 17 17 17 17 16 16 16
27 28 28 28 29 29 29 29 29 29 29 29 28 27 26 25 25 24 23 22 22 21 21 20 20 20 19 19 19 19 19 18 18 18 18 18 17 17 17 17 16 16 16 16
27 26 26 28 29 29 28 29 29 28 28 28 27 26 25 24 24 23 22 22 21 21 20 20 20 20 19 19 19 18 18 18 18 17 17 17 17 17 16 16 16 16 16 15
26 26 27 28 28 28 27 27 28 28 27 26 26 25 25 24 23 22 21 21 20 20 20 19 19 19 19 18 18 18 18 17 17 17 17 17 16 16 16 16 16 15 15 15
25 25 25 27 28 27 27 26 27 26 26 26 25 27 26 23 22 21 21 20 20 20 19 19 18 18 18 18 18 17 17 17 17 17 17 16 16 16 16 16 15 15 15 15
25 25 26 26 26 26 25 26 25 25 25 24 25 25 23 22 21 20 20 19 19 19 18 18 18 18 18 18 17 17 17 17 17 17 16 16 16 16 16 15 15 15 15 15
24 24 25 25 25 25 25 24 24 23 23 23 23 22 21 20 20 19 19 18 18 18 18 18 18 18 17 17 17 17 16 16 16 16 16 16 16 15 15 15 15 15 15 14
24 25 23 23 23 23 22 22 22 22 22 21 21 21 20 19 19 18 18 17 17 17 17 17 17 17 17 17 17 16 16 16 16 15 15 15 15 15 15 15 15 15 14 14
23 24 23 22 22 21 21 21 21 21 21 21 20 20 19 19 18 18 17 17 17 17 17 17 17 17 17 17 16 16 16 15 15 15 15 15 15 14 14 14 14 14 14 14
22 22 22 21 21 20 20 20 20 20 20 20 20 19 19 18 18 17 17 16 16 16 16 16 16 16 16 16 16 15 15 15 15 15 14 14 14 14 14 14 14 14 13 13
22 21 21 21 20 20 20 19 19 19 19 19 19 19 18 18 17 17 16 16 16 16 16 16 16 16 16 16 15 15 15 15 15 15 14 14 14 14 14 13 13 13 13 13
20 19 20 19 19 19 19 19 19 18 18 18 18 18 17 17 16 16 16 16 16 15 15 15 15 15 15 15 15 15 15 14 14 14 14 14 14 14 13 13 13 13 12 12
17 18 18 18 18 18 18 18 18 18 18 18 17 17 17 16 16 16 15 15 15 15 15 15 15 15 15 15 15 14 14 14 14 14 14 14 13 13 13 13 13 12 12 12
17 17 18 18 17 18 18 18 18 17 17 17 17 16 16 16 15 15 15 15 15 15 14 14 14 14 14 14 14 14 14 13 13 13 13 13 13 13 13 12 12 12 12 12
17 17 17 17 17 17 17 17 17 17 17 16 16 16 15 15 15 15 15 14 14 14 14 14 14 14 14 13 13 13 13 13 13 13 13 13 12 12 12 12 12 12 12 11
17 17 17 17 17 17 17 17 17 16 16 16 15 15 15 15 14 14 14 14 14 14 13 13 13 13 13 13 13 13 13 12 12 12 12 12 12 12 12 12 12 12 11 11
16 16 16 16 16 16 16 16 16 16 15 15 15 15 14 14 14 14 13 14 14 13 13 13 13 13 13 13 13 12 12 12 12 12 12 12 11 11 11 11 11 11 11 10
16 16 16 16 15 15 16 16 15 15 15 15 14 14 14 14 13 13 13 13 13 13 12 12 12 12 12 12 12 12 12 12 11 11 11 11 11 11 11 11 11 10 10 10
15 15 15 15 15 15 15 15 15 14 14 14 14 14 13 13 13 13 13 13 13 12 12 12 12 12 12 12 12 11 11 11 11 11 11 11 11 10 10 10 10 10 10 9
15 15 14 14 14 14 14 14 14 14 13 13 13 13 13 13 13 13 13 13 12 12 12 12 11 11 11 11 11 11 11 11 11 11 10 10 10 10 10 10 10 9 9 9
14 14 14 14 14 13 13 13 13 13 13 13 13 13 13 12 12 12 12 12 12 12 11 11 11 11 11 11 11 11 11 10 10 10 10 10 10 9 9 9 9 9 9 9
13 13 13 13 13 13 13 13 13 13 13 12 12 12 12 12 12 12 12 12 11 11 11 11 11 11 10 10 10 10 10 10 10 10 10 9 9 9 9 9 9 9 9 8
12 13 12 12 12 12 12 12 12 12 12 12 12 12 12 12 12 12 11 11 11 11 11 10 10 10 10 10 10 10 10 10 10 9 9 9 9 9 9 9 9 8 8 8
12 12 12 12 12 12 12 12 12 12 12 12 12 12 11 11 11 11 11 11 11 10 10 10 10 10 10 10 10 10 10 9 9 9 9 9 9 8 8 8 8 8 8 8
12 12 12 12 12 12 12 12 12 12 12 12 12 11 11 11 11 11 10 10 10 10 10 10 10 10 10 10 10 9 9 9 9 9 9 9 8 8 8 8 8 8 8 7
12 12 11 11 11 11 12 12 12 12 11 11 11 11 11 11 10 10 10 10 10 10 10 10 10 9 9 9 9 9 9 9 9 9 9 8 8 8 8 8 8 7 7 7
Wind_Speed
13 10 9 11 12 12 14 14 13 11 10 8 6 4 4 4 4 4 4 5 5 5 5 6 7 7 7 7 7 8 8 8 7 7 6 5 5 5 4 4 5 4 5 4
13 12 12 13 13 14 14 14 14 13 12 7 5 4 4 5 5 5 5 5 5 6 6 6 7 7 8 8 8 8 8 8 7 7 6 6 5 5 4 4 4 4 4 4
14 12 12 15 13 13 13 12 12 13 9 4 5 5 5 5 5 5 5 4 5 5 6 6 7 7 8 8 8 8 8 8 8 7 7 6 6 5 5 5 5 4 4 4
11 10 15 10 6 9 11 12 10 9 6 5 5 5 5 4 4 4 4 3 4 4 5 5 6 7 7 7 8 8 8 8 8 8 7 7 6 6 5 5 4 4 4 4
11 14 14 8 5 7 10 11 8 8 7 5 4 5 5 2 3 3 3 3 3 3 3 4 4 5 6 7 8 8 8 8 8 8 7 7 6 6 5 4 4 5 4 5
11 13 14 8 3 4 8 11 5 5 6 5 5 7 3 0 1 1 2 1 2 2 2 3 4 5 6 7 7 8 8 8 8 8 7 7 6 6 5 4 4 4 4 5
13 13 11 2 1 4 10 6 0 3 3 5 5 4 2 1 0 1 0 0 1 1 2 2 3 4 5 5 6 7 7 7 7 7 7 7 6 5 5 5 4 4 4 5
11 13 9 2 4 6 4 3 1 2 3 3 3 1 1 1 1 1 1 1 1 1 1 2 3 3 4 5 4 5 5 6 6 6 6 5 6 5 5 5 5 5 5 5
7 6 0 2 3 2 3 3 2 2 3 3 2 1 0 0 1 1 1 1 1 1 1 2 3 3 4 4 4 5 5 6 6 6 5 5 5 5 5 4 5 4 4 4
7 6 4 4 4 4 4 4 3 3 3 3 3 2 2 1 1 1 1 1 1 2 2 2 3 3 3 3 4 5 5 5 5 5 5 4 4 4 4 4 4 4 4 3
9 7 6 6 6 5 4 4 3 3 3 3 4 3 2 1 1 0 0 1 1 2 2 2 2 2 2 3 4 5 5 4 5 5 4 4 3 2 3 2 2 3 3 3
8 6 7 6 5 5 4 4 3 2 3 3 4 3 3 2 1 0 1 1 1 2 2 2 2 2 2 2 4 5 4 4 4 4 4 4 3 2 3 1 3 2 1 2
6 7 7 6 5 5 4 4 3 3 3 3 2 2 2 1 1 1 0 1 1 1 1 1 1 1 2 2 3 4 4 4 4 4 4 4 4 4 3 2 3 4 4 3
4 5 5 4 4 3 3 3 3 3 2 2 2 2 2 2 2 1 1 0 0 0 0 0 1 1 1 2 3 4 4 3 3 3 3 4 4 4 4 4 3 2 3 6
4 5 4 3 2 2 3 3 3 3 3 3 2 2 2 2 1 1 0 0 0 1 1 1 1 1 1 2 3 4 4 3 2 3 4 4 4 4 4 4 3 3 2 3
4 4 3 3 3 3 4 4 4 3 3 3 3 3 2 2 1 1 0 0 1 1 0 1 2 2 1 2 2 3 2 2 2 4 4 4 4 4 4 3 3 2 2 2
3 3 2 3 3 3 4 4 4 4 4 3 3 2 2 2 1 1 0 0 1 0 0 1 1 2 2 2 2 2 2 2 4 4 3 3 4 4 3 3 3 3 3 2
4 3 3 3 3 3 3 3 3 4 3 3 3 3 2 2 2 1 0 1 1 1 0 1 1 1 2 2 2 2 2 2 3 3 3 3 3 3 3 3 3 4 3 3
3 3 3 3 3 3 3 2 3 3 3 3 3 3 3 2 2 1 1 1 0 0 1 1 0 1 1 1 2 3 3 3 3 3 3 3 4 4 3 3 3 4 3 3
3 3 2 1 1 1 1 1 2 3 3 3 3 3 2 1 1 1 1 0 1 2 1 1 1 1 1 1 2 3 3 3 3 3 3 3 3 3 3 3 3 4 4 4
2 1 1 1 1 1 1 1 2 2 3 3 3 3 2 2 1 1 1 0 1 1 1 1 1 1 1 1 3 3 3 3 3 3 3 3 3 4 4 4 4 4 4 4
2 1 1 1 0 0 1 2 3 3 3 3 2 2 2 2 2 2 1 1 0 0 1 1 1 1 2 3 3 3 2 2 3 3 3 3 3 4 4 4 4 4 4 4
2 1 1 1 0 1 1 1 2 3 3 2 2 1 1 1 1 2 1 0 0 0 1 1 1 1 3 3 2 3 3 3 3 3 3 3 4 4 4 4 4 5 5 5
3 2 1 0 1 1 2 2 2 2 2 2 2 2 2 2 2 2 1 2 2 2 2 1 2 3 5 3 2 2 3 3 3 3 3 4 4 4 4 4 5 5 5 5
3 2 1 1 1 2 2 3 3 3 2 1 1 2 2 2 2 1 1 1 1 2 2 2 4 5 4 3 3 3 3 3 3 3 3 4 4 4 4 4 4 4 5 5
2 1 1 1 1 1 2 2 2 2 2 2 1 1 1 1 1 1 1 2 2 2 2 2 2 4 3 3 3 3 3 3 3 3 4 4 4 5 4 4 5 5 5 5
1 1 1 1 1 1 1 1 2 2 2 2 1 1 1 1 1 1 1 1 1 1 1 2 2 3 3 3 3 4 4 4 4 4 4 4 4 4 4 5 5 5 4 4
Wind_Direction
253 259 255 251 247 237 240 254 264 269 266 262 260 256 248 239 229 209 203 203 201 195 188 193 194 192 192 190 186 185 189 194 195 197 198 200 200 204 208 213 214 213 218 216
246 247 251 254 251 243 242 249 256 262 265 272 268 252 245 240 236 230 224 217 212 209 202 199 198 195 192 190 186 184 188 192 191 193 195 197 200 202 206 209 216 214 220 217
247 239 246 247 243 241 243 248 255 258 265 267 260 253 252 249 245 240 236 234 227 222 214 205 201 197 195 191 187 187 188 189 190 192 193 196 200 197 203 207 209 211 213 211
248 239 245 252 238 242 247 249 252 259 262 262 271 261 253 245 246 248 252 247 237 228 217 207 198 192 192 187 186 189 189 189 191 193 193 194 197 199 203 206 206 207 207 203
240 242 246 238 228 231 241 247 248 254 254 257 266 245 224 235 246 252 255 247 240 236 217 200 193 187 187 190 189 192 193 193 193 193 193 194 196 197 200 202 207 213 206 201
237 247 250 248 217 241 244 243 238 243 246 248 246 252 245 103 274 271 274 251 222 220 207 188 187 187 190 193 195 200 199 195 192 192 193 195 196 199 199 203 210 215 208 210
236 243 249 244 181 215 236 258 225 236 243 244 245 290 349 58 359 331 3 128 155 189 194 179 176 181 195 198 204 207 201 193 190 191 194 192 190 193 195 201 202 210 210 213
234 241 242 123 184 229 275 341 307 261 255 257 273 331 41 86 101 75 73 89 137 172 191 172 166 175 193 203 205 200 192 190 189 190 196 186 185 191 195 197 198 200 207 216
239 246 359 181 239 279 307 295 291 275 272 251 241 229 188 150 92 92 109 124 150 168 184 187 184 192 203 202 198 195 194 190 186 185 190 187 190 192 196 202 215 215 215 220
244 241 240 233 250 265 274 276 288 283 264 237 225 220 222 193 124 104 103 161 187 207 204 198 193 202 210 195 188 191 192 186 183 186 189 187 197 200 206 216 230 231 231 234
243 252 249 241 250 254 258 260 261 256 237 220 216 215 205 190 185 215 219 228 214 217 209 205 202 208 207 190 186 191 194 192 191 193 192 190 198 208 222 229 238 245 249 243
251 253 259 257 259 260 258 252 243 235 218 208 209 202 191 186 184 210 287 266 243 225 207 203 207 207 196 190 191 194 196 204 206 202 192 195 191 187 84 152 120 139 220 249
277 281 276 268 256 251 249 247 229 215 211 205 196 192 187 188 182 141 147 247 231 244 247 238 223 215 200 191 196 204 207 206 214 210 203 206 210 208 198 164 148 161 166 173
283 279 262 247 247 242 237 234 217 200 191 181 175 173 171 169 166 162 177 170 25 359 257 240 238 228 211 197 203 213 217 205 219 217 219 219 217 216 217 217 205 197 183 180
281 279 270 249 236 224 205 202 198 197 183 169 162 168 177 177 164 152 134 329 316 278 295 315 291 282 263 223 219 223 226 226 224 239 237 231 227 228 230 225 216 205 196 171
282 286 285 242 226 225 207 200 203 202 196 184 177 180 185 176 154 147 141 191 234 270 333 338 304 297 290 259 239 234 225 213 230 239 239 235 232 236 237 229 226 221 220 212
274 282 281 269 243 234 221 212 209 209 201 191 183 179 177 166 156 154 338 92 130 187 198 241 284 308 280 245 235 236 233 211 214 239 244 239 242 240 239 238 235 232 230 186
277 280 272 267 256 243 231 217 208 205 201 190 185 187 190 197 200 187 146 100 103 105 70 360 346 299 274 266 264 266 255 247 237 241 244 242 243 241 240 244 250 247 242 197
294 298 296 283 260 244 229 214 204 199 194 184 188 198 201 200 195 181 154 130 127 262 0 15 351 250 254 264 271 246 251 247 245 243 240 234 238 238 234 238 247 245 241 234
301 309 316 296 260 243 227 199 180 178 177 182 185 180 171 164 160 159 152 122 13 3 18 8 269 267 277 279 275 260 257 254 251 250 245 243 243 243 239 239 241 237 238 238
309 307 317 323 318 302 232 190 177 173 172 174 175 173 167 167 165 162 200 264 59 42 17 189 244 274 274 292 252 256 251 251 252 253 254 255 255 254 247 241 244 243 240 242
326 332 344 338 311 66 133 169 172 169 164 163 164 160 168 181 186 186 196 243 243 51 265 263 262 25 305 268 250 252 252 252 250 251 252 252 252 253 254 253 252 251 248 248
327 335 352 341 214 143 134 158 165 161 156 158 160 172 202 249 270 262 254 199 223 247 258 301 49 57 275 261 269 263 260 260 257 253 254 253 250 252 255 259 259 256 254 252
328 338 347 312 177 162 159 159 158 152 158 171 172 177 209 232 252 257 234 155 168 220 256 116 152 244 259 260 271 274 274 272 268 262 255 253 253 255 259 262 265 266 264 261
326 327 309 260 224 196 173 170 166 174 186 176 182 193 219 236 249 272 263 218 163 220 245 181 194 236 255 278 281 285 284 282 278 276 272 268 264 260 258 263 267 269 267 263
306 306 314 290 299 246 208 195 192 192 200 200 200 197 205 225 223 222 221 218 226 231 251 258 250 247 269 281 281 287 292 287 273 267 275 277 274 271 273 276 270 267 265 262
293 316 289 286 261 230 226 208 203 212 215 208 216 234 235 225 223 237 249 249 245 252 261 263 271 279 286 289 292 295 295 294 289 286 280 276 275 271 268 268 270 271 270 267
Height
1480 1477 1479 1480 1481 1482 1485 1483 1485 1483 1481 1481 1482 1486 1489 1492 1494 1495 1497 1498 1499 1500 1501 1503 1504 1505 1506 1508 1509 1511 1513 1515 1516 1518 1520 1521 1522 1523 1523 1524 1525 1525 1525 1526
1484 1480 1479 1481 1478 1479 1480 1479 1479 1480 1480 1478 1483 1486 1489 1490 1492 1493 1494 1496 1497 1498 1499 1500 1501 1502 1503 1504 1506 1507 1509 1512 1514 1515 1517 1518 1519 1520 1520 1521 1521 1522 1522 1523
1485 1478 1481 1485 1476 1476 1477 1475 1476 1479 1478 1479 1482 1485 1487 1488 1490 1491 1492 1494 1495 1496 1496 1497 1498 1499 1500 1501 1503 1504 1506 1508 1510 1512 1513 1515 1516 1517 1517 1518 1518 1519 1519 1519
1482 1486 1496 1475 1468 1471 1473 1473 1473 1474 1477 1480 1482 1484 1486 1487 1488 1489 1490 1491 1492 1493 1494 1494 1495 1496 1497 1498 1500 1501 1503 1504 1506 1508 1510 1511 1513 1513 1514 1515 1515 1515 1516 1516
1481 1484 1479 1471 1470 1472 1474 1474 1473 1474 1477 1479 1481 1482 1483 1485 1486 1488 1489 1490 1490 1491 1492 1492 1493 1493 1494 1496 1497 1498 1500 1501 1503 1505 1506 1508 1509 1510 1511 1511 1512 1512 1513 1513
1481 1486 1485 1472 1468 1471 1473 1475 1472 1475 1476 1478 1479 1477 1478 1482 1484 1485 1487 1487 1488 1488 1489 1490 1490 1491 1492 1493 1494 1495 1497 1498 1500 1501 1503 1504 1506 1507 1507 1508 1509 1509 1510 1510
1480 1481 1472 1468 1470 1473 1480 1476 1474 1475 1477 1478 1478 1478 1481 1481 1483 1484 1484 1485 1486 1486 1487 1487 1488 1489 1490 1490 1491 1493 1494 1495 1497 1498 1499 1501 1502 1503 1504 1505 1505 1506 1506 1506
1478 1480 1476 1470 1472 1474 1474 1475 1475 1476 1477 1478 1479 1480 1480 1481 1482 1482 1482 1483 1484 1484 1485 1485 1486 1486 1487 1488 1489 1491 1492 1493 1494 1495 1497 1498 1499 1500 1500 1501 1501 1501 1502 1502
1470 1472 1472 1473 1474 1475 1476 1476 1476 1476 1477 1478 1479 1479 1480 1481 1481 1481 1482 1482 1482 1483 1483 1483 1484 1485 1485 1486 1487 1489 1490 1490 1491 1492 1494 1495 1496 1497 1497 1497 1498 1498 1498 1499
1471 1469 1472 1473 1474 1475 1475 1475 1475 1475 1476 1477 1477 1478 1479 1480 1480 1480 1481 1481 1481 1481 1482 1482 1482 1483 1484 1484 1485 1486 1487 1488 1488 1489 1491 1492 1493 1494 1494 1495 1495 1495 1495 1495
1470 1470 1471 1472 1473 1474 1474 1474 1474 1474 1475 1475 1476 1477 1478 1478 1479 1479 1479 1479 1480 1480 1480 1480 1481 1481 1482 1483 1483 1484 1485 1485 1486 1487 1488 1488 1489 1490 1491 1491 1491 1491 1492 1492
1467 1469 1470 1469 1471 1471 1472 1472 1472 1472 1473 1473 1474 1475 1476 1477 1478 1478 1478 1478 1478 1478 1478 1479 1479 1479 1479 1480 1481 1481 1482 1483 1483 1484 1484 1485 1485 1486 1486 1487 1487 1487 1488 1488
1469 1469 1468 1468 1469 1469 1469 1469 1470 1470 1471 1471 1472 1474 1475 1475 1476 1476 1476 1477 1477 1476 1476 1477 1477 1478 1478 1478 1478 1479 1480 1480 1481 1481 1481 1481 1481 1482 1483 1483 1484 1484 1484 1485
1468 1467 1466 1466 1466 1466 1467 1468 1468 1469 1469 1470 1471 1472 1473 1474 1474 1475 1476 1476 1475 1475 1475 1475 1475 1476 1476 1476 1476 1477 1477 1478 1478 1478 1478 1478 1479 1479 1480 1480 1480 1480 1481 1481
1465 1465 1464 1464 1464 1464 1465 1466 1467 1467 1468 1469 1470 1471 1471 1472 1473 1473 1474 1474 1474 1474 1474 1473 1473 1473 1473 1473 1474 1474 1475 1475 1475 1475 1476 1476 1476 1477 1477 1477 1478 1477 1478 1478
1464 1463 1462 1462 1462 1463 1463 1464 1464 1465 1466 1468 1469 1469 1470 1471 1471 1472 1472 1472 1472 1472 1472 1471 1472 1471 1470 1470 1471 1471 1471 1471 1472 1473 1474 1474 1474 1474 1474 1474 1474 1474 1475 1475
1462 1460 1460 1460 1460 1460 1461 1461 1462 1464 1465 1466 1467 1468 1468 1469 1469 1470 1470 1470 1470 1470 1470 1469 1469 1468 1468 1468 1468 1469 1469 1469 1470 1471 1471 1471 1471 1471 1471 1471 1471 1471 1471 1471
1460 1460 1459 1458 1458 1458 1459 1460 1461 1462 1462 1463 1465 1465 1466 1467 1468 1468 1468 1468 1468 1468 1468 1468 1467 1467 1467 1467 1466 1466 1467 1467 1468 1468 1468 1468 1468 1468 1468 1468 1468 1469 1469 1468
1458 1458 1457 1456 1457 1457 1457 1458 1459 1459 1461 1462 1463 1463 1464 1465 1466 1466 1466 1467 1467 1467 1467 1466 1465 1466 1466 1465 1465 1465 1466 1466 1465 1465 1465 1465 1465 1465 1465 1465 1465 1465 1465 1465
1457 1456 1456 1456 1456 1456 1456 1456 1457 1457 1458 1460 1461 1462 1463 1463 1464 1464 1465 1465 1466 1465 1465 1464 1464 1464 1464 1463 1463 1463 1464 1463 1463 1463 1463 1462 1462 1462 1462 1462 1462 1462 1462 1462
1455 1455 1455 1454 1454 1454 1454 1455 1456 1456 1457 1458 1459 1460 1461 1461 1462 1463 1463 1464 1464 1463 1463 1463 1463 1462 1462 1461 1461 1461 1461 1461 1461 1461 1460 1460 1460 1459 1459 1459 1459 1459 1459 1459
1454 1453 1453 1453 1453 1453 1453 1454 1455 1455 1456 1457 1458 1459 1459 1460 1461 1461 1461 1462 1462 1461 1461 1461 1461 1461 1460 1460 1460 1460 1459 1458 1458 1458 1457 1457 1457 1457 1456 1456 1456 1456 1456 1456
1452 1452 1452 1452 1452 1452 1452 1453 1454 1454 1455 1456 1456 1457 1458 1458 1459 1459 1460 1460 1459 1459 1460 1459 1459 1458 1458 1458 1458 1457 1457 1456 1455 1455 1455 1454 1454 1454 1453 1453 1453 1453 1453 1453
1451 1450 1450 1451 1450 1451 1451 1452 1453 1453 1454 1454 1455 1456 1456 1457 1457 1458 1458 1457 1457 1457 1457 1457 1456 1456 1456 1456 1455 1455 1454 1453 1453 1452 1452 1452 1451 1451 1450 1450 1450 1450 1449 1449
1450 1449 1449 1449 1449 1449 1450 1450 1451 1452 1453 1453 1454 1454 1455 1455 1455 1455 1455 1455 1455 1455 1455 1455 1454 1454 1454 1454 1453 1452 1451 1451 1450 1450 1449 1449 1448 1447 1447 1447 1446 1446 1445 1445
1449 1449 1448 1448 1448 1448 1448 1449 1449 1450 1451 1451 1452 1452 1453 1453 1453 1453 1453 1453 1453 1452 1452 1452 1452 1452 1452 1451 1451 1450 1449 1448 1447 1446 1446 1445 1445 1444 1444 1443 1442 1442 1441 1441
1448 1448 1447 1447 1447 1447 1447 1448 1448 1448 1449 1449 1450 1450 1450 1450 1451 1451 1451 1451 1451 1451 1450 1450 1450 1450 1449 1449 1448 1447 1446 1445 1444 1444 1443 1442 1441 1440 1439 1438 1438 1438 1437 1436